CW5834 Weather Reports


time (UTC)temp
C
wind
direction
speed
KPH
gust
KPH
rain 1hr
cm
rain 24hr
cm
rain mn
cm
humidity
%
barometer
mb
20190220155522 8 0.0 0.0 0.00 3.91 0.23 81 1020.1
20190220154522 8 0.0 0.0 0.00 3.91 0.23 82 1020.1
20190220153522 8 0.0 0.0 0.00 3.91 0.23 82 1020.0
20190220152517 8 0.0 0.0 0.00 3.91 0.23 82 1020.2
20190220151522 8 45 3.2 8.0 0.00 3.91 0.23 81 1019.7
20190220150522 8 22 1.6 9.7 0.00 3.91 0.23 82 1019.5
20190220145522 8 0 1.6 8.0 0.00 3.91 0.23 80 1019.8
20190220144522 8 0.0 9.7 0.00 3.91 0.23 79 1020.0
20190220143522 8 0.0 0.0 0.00 3.91 0.23 77 1020.6
20190220142522 8 0.0 6.4 0.00 3.91 0.23 76 1021.0
20190220141517 8 0 1.6 6.4 0.00 3.91 0.23 77 1020.3
20190220140522 8 0 1.6 8.0 0.00 3.91 0.23 77 1020.3
20190220135522 7 0.0 0.0 0.00 3.91 0.23 78 1020.2
20190220134522 7 0.0 4.8 0.00 3.91 0.23 79 1019.9
20190220133522 7 0.0 0.0 0.00 3.91 0.23 78 1019.9
20190220132522 7 0.0 4.8 0.00 3.91 0.23 78 1019.8
20190220131517 7 67 3.2 12.9 0.00 3.91 0.23 78 1019.5
20190220130516 7 90 4.8 16.1 0.00 3.91 0.23 77 1019.3
20190220125522 7 90 6.4 12.9 0.00 3.91 0.23 78 1019.4
20190220124522 7 67 6.4 17.7 0.00 3.91 0.23 77 1019.2
20190220123522 7 90 8.0 16.1 0.00 3.91 0.23 78 1019.2
20190220122522 7 90 11.3 19.3 0.00 3.91 0.23 77 1019.2
20190220121522 7 90 6.4 19.3 0.00 3.91 0.23 78 1019.2
20190220120516 7 112 6.4 14.5 0.00 3.91 0.23 78 1019.8
20190220115522 7 90 3.2 11.3 0.00 3.91 0.23 79 1019.7
20190220114522 7 45 4.8 16.1 0.00 3.91 0.23 78 1019.6
20190220113522 7 67 3.2 14.5 0.00 3.91 0.23 79 1019.7
20190220112522 7 67 3.2 11.3 0.00 3.91 0.23 78 1019.7
20190220111521 7 22 3.2 11.3 0.00 3.91 0.23 79 1019.9
20190220110522 7 45 6.4 16.1 0.00 3.91 0.23 78 1020.1
20190220105517 7 45 3.2 19.3 0.00 3.91 0.23 80 1019.9
20190220104522 7 90 9.7 17.7 0.00 3.91 0.23 79 1018.9
20190220103522 7 90 8.0 12.9 0.00 3.91 0.23 79 1019.3
20190220102521 7 67 8.0 16.1 0.00 3.91 0.23 80 1019.9
20190220101522 7 67 8.0 16.1 0.00 3.91 0.23 79 1019.8
20190220100522 6 90 12.9 25.7 0.00 3.91 0.23 80 1019.3
20190220095517 6 90 8.0 16.1 0.00 3.91 0.23 81 1019.4
20190220094516 6 90 6.4 20.9 0.00 3.91 0.23 81 1019.9
20190220093521 6 67 6.4 16.1 0.00 3.91 0.23 81 1019.8
20190220092522 6 90 6.4 14.5 0.00 3.91 0.23 82 1020.3
20190220091521 6 90 6.4 14.5 0.00 3.91 0.23 82 1020.4
20190220090521 6 112 8.0 24.1 0.00 3.91 0.23 82 1021.0
20190220085521 6 90 8.0 14.5 0.00 3.91 0.23 83 1021.2
20190220084516 6 90 4.8 14.5 0.00 3.91 0.23 84 1020.9
20190220083516 5 67 6.4 16.1 0.00 3.91 0.23 83 1021.0
20190220082521 5 67 4.8 11.3 0.00 3.91 0.23 84 1021.1
20190220081521 5 67 4.8 16.1 0.00 3.91 0.23 85 1021.3
20190220080521 5 22 9.7 19.3 0.00 3.91 0.23 85 1021.5
20190220075521 5 45 6.4 17.7 0.00 3.91 0.23 86 1021.7
20190220074521 5 90 11.3 25.7 0.00 3.91 0.23 86 1021.7
20190220073516 5 67 9.7 22.5 0.03 3.91 0.23 87 1021.7
20190220072521 5 90 9.7 22.5 0.03 3.91 0.23 87 1022.1
20190220071521 5 67 9.7 24.1 0.03 3.91 0.23 88 1022.2
20190220070521 5 67 6.4 17.7 0.03 3.91 0.23 88 1022.6
20190220065521 5 90 8.0 20.9 0.03 3.91 0.23 88 1023.3
20190220064521 5 45 8.0 16.1 0.03 3.91 0.23 88 1023.4
20190220063521 5 67 8.0 22.5 0.03 3.86 0.20 88 1023.4
20190220062516 5 67 8.0 17.7 0.10 3.86 0.20 88 1023.8
20190220061522 5 90 9.7 19.3 0.15 3.86 0.20 88 1024.0
20190220060521 5 22 6.4 16.1 0.20 3.86 0.20 89 1024.4
20190220055521 5 22 11.3 40.2 0.28 3.86 0.20 88 1023.6
20190220054521 5 45 11.3 29.0 0.41 3.86 0.20 90 1023.2
20190220053521 5 45 14.5 37.0 0.56 3.84 0.18 90 1022.9
20190220052516 5 45 11.3 27.4 0.66 3.76 0.13 90 1022.9
20190220051516 5 67 11.3 35.4 0.81 3.68 0.08 90 1024.2
20190220050521 5 45 11.3 27.4 1.02 3.66 0.05 90 1023.9
20190220045521 5 90 9.7 24.1 1.19 3.58 2.57 90 1024.6
20190220044521 5 45 9.7 22.5 1.27 3.43 2.46 90 1025.2
20190220043522 5 67 11.3 20.9 1.30 3.25 2.34 90 1025.0
20190220042521 5 45 12.9 30.6 1.30 3.07 2.21 90 1025.5
20190220041521 5 45 12.9 24.1 1.19 2.87 2.06 89 1025.8
20190220040516 5 67 11.3 24.1 1.17 2.62 1.88 90 1026.2
20190220035516 5 112 9.7 25.7 1.04 2.36 1.70 89 1026.6
20190220034521 5 90 11.3 25.7 1.02 2.16 1.55 89 1026.7
20190220033521 5 90 11.3 25.7 0.91 1.96 1.40 89 1026.8
20190220032521 5 45 8.0 19.3 0.84 1.78 1.27 88 1027.6
20190220031521 5 90 12.9 27.4 0.81 1.65 1.19 88 1027.9
20190220030521 5 67 11.3 24.1 0.66 1.45 1.04 89 1027.6
20190220025516 5 90 12.9 29.0 0.56 1.30 0.94 88 1028.3
20190220024516 5 90 8.0 29.0 0.41 1.12 0.81 89 1028.2
20190220023521 5 67 8.0 20.9 0.38 1.02 0.71 87 1028.1
20190220022521 4 45 4.8 16.1 0.28 0.91 0.66 87 1028.1
20190220021521 4 90 11.3 22.5 0.20 0.84 0.61 87 1028.5
20190220020521 5 67 9.7 20.9 0.20 0.76 0.56 87 1028.6
20190220015521 4 45 3.2 14.5 0.28 0.74 0.53 87 1028.8
20190220014516 5 45 8.0 17.7 0.36 0.71 0.51 86 1028.7
20190220013521 4 45 8.0 17.7 0.28 0.64 0.46 85 1029.0
20190220012521 4 45 11.3 22.5 0.30 0.64 0.46 86 1028.4
20190220011522 3 67 4.8 12.9 0.30 0.64 0.46 86 1028.7
20190220010522 3 45 3.2 11.3 0.28 0.56 0.41 86 1028.3
20190220005521 3 67 4.8 19.3 0.20 0.46 0.33 85 1029.1
20190220004521 3 112 6.4 24.1 0.13 0.36 0.25 85 1028.7
20190220003516 2 0.0 0.0 0.15 0.36 0.25 87 1029.3
20190220002521 2 0.0 0.0 0.20 0.30 0.23 87 1029.3
20190220001521 2 0.0 0.0 0.20 0.30 0.23 86 1029.8
20190220000521 2 0.0 0.0 0.20 0.28 0.20 86 1030.3
20190219235521 2 0.0 0.0 0.20 0.23 0.18 87 1030.2
20190219234521 2 0.0 0.0 0.20 0.20 0.15 87 1030.0
20190219233521 2 0.0 0.0 0.15 0.15 0.13 86 1030.7
20190219232516 2 0.0 0.0 0.10 0.10 0.08 86 1030.8
20190219231521 2 0.0 0.0 0.10 0.10 0.08 83 1031.4
20190219230521 3 0.0 0.0 0.05 0.05 0.05 78 1031.5
20190219225521 3 0.0 0.0 0.03 0.03 0.03 71 1031.2
20190219224521 3 0.0 0.0 0.00 0.00 0.00 67 1031.0
20190219223521 3 0.0 0.0 0.00 0.00 0.00 68 1031.2
20190219222516 3 0.0 0.0 0.00 0.00 0.00 67 1031.3
20190219221516 3 0.0 0.0 0.00 0.00 0.00 65 1031.4
20190219220521 3 0.0 0.0 0.00 0.00 0.00 63 1031.5
20190219215521 4 0.0 0.0 0.00 0.00 0.00 66 1031.7
20190219214521 4 0.0 0.0 0.00 0.00 0.00 63 1032.3
20190219213521 4 0.0 0.0 0.00 0.00 0.00 64 1031.6
20190219212521 4 0.0 0.0 0.00 0.00 0.00 62 1032.1
20190219211515 4 0.0 0.0 0.00 0.00 0.00 63 1031.8
20190219210521 4 0.0 3.2 0.00 0.00 0.00 61 1031.2
20190219205521 4 0.0 0.0 0.00 0.00 0.00 61 1030.9
20190219204521 4 0.0 0.0 0.00 0.00 0.00 60 1030.3
20190219203521 4 0.0 0.0 0.00 0.00 0.00 60 1030.6
20190219202521 4 0.0 0.0 0.00 0.00 0.00 60 1031.0
20190219201521 4 0.0 0.0 0.00 0.00 0.00 59 1031.6
20190219200515 4 0.0 0.0 0.00 0.00 0.00 60 1031.0
20190219195521 3 0.0 0.0 0.00 0.00 0.00 61 1031.4
20190219194520 3 0.0 0.0 0.00 0.00 0.00 61 1032.3
20190219193521 3 0.0 0.0 0.00 0.00 0.00 61 1032.4
20190219192521 3 0.0 0.0 0.00 0.00 0.00 61 1032.2
20190219191521 3 0.0 0.0 0.00 0.00 0.00 60 1032.0
20190219190521 3 0.0 6.4 0.00 0.00 0.00 60 1031.2
20190219185516 3 22 3.2 11.3 0.00 0.00 0.00 61 1031.3
20190219184520 3 0.0 8.0 0.00 0.00 0.00 61 1031.8
20190219183520 3 0.0 3.2 0.00 0.00 0.00 64 1032.2
20190219182520 3 22 1.6 8.0 0.00 0.00 0.00 63 1032.7
20190219181521 3 315 1.6 6.4 0.00 0.00 0.00 63 1033.0
20190219180521 3 315 1.6 8.0 0.00 0.00 0.00 65 1033.6
20190219175515 3 315 1.6 6.4 0.00 0.00 0.00 63 1033.6
20190219174515 3 0.0 8.0 0.00 0.00 0.00 64 1033.1
20190219173520 3 0.0 0.0 0.00 0.00 0.00 64 1033.1
20190219172520 3 0.0 3.2 0.00 0.00 0.00 66 1032.7
20190219171520 3 0.0 0.0 0.00 0.00 0.00 65 1033.2
20190219170520 3 0.0 0.0 0.00 0.00 0.00 66 1033.3
20190219165520 2 0.0 0.0 0.00 0.00 0.00 66 1033.3
20190219164515 2 0.0 0.0 0.00 0.00 0.00 66 1033.4
20190219163520 2 0.0 8.0 0.00 0.00 0.00 69 1033.7
20190219162520 2 0.0 0.0 0.00 0.00 0.00 67 1033.9
20190219161520 2 45 1.6 8.0 0.00 0.00 0.00 68 1033.6
20190219160520 2 0 1.6 8.0 0.00 0.00 0.00 68 1034.2